Estación de San Diego

Ultimos registro cada 15 minutos 31
Estación Fecha / Hora Temperatura Humedad Lluvia Velocidad Dirección Radiación Presion
31 San Diego 09-05-2026 07:30 4,9 96 0 0 1 0 1016,4
30 San Diego 09-05-2026 07:15 4,6 96 0 0 51 0 1016,2
29 San Diego 09-05-2026 07:00 4,6 96 0 0 110 0 1016,2
28 San Diego 09-05-2026 06:45 4,8 96 0 0 110 0 1016,3
27 San Diego 09-05-2026 06:30 4,8 96 0 0 77 0 1016,1
26 San Diego 09-05-2026 06:15 5,1 96 0 0 77 0 1016,2
25 San Diego 09-05-2026 06:00 5,2 96 0 0 332 0 1016,1
24 San Diego 09-05-2026 05:45 5,3 96 0 0 358 0 1016,1
23 San Diego 09-05-2026 05:30 5,4 95 0 0 332 0 1016
22 San Diego 09-05-2026 05:15 5,7 95 0 0 18 0 1015,9
21 San Diego 09-05-2026 05:00 6,4 96 0 0 319 0 1016
20 San Diego 09-05-2026 04:45 6,7 96 0 0 319 0 1016
19 San Diego 09-05-2026 04:30 6,8 96 0 0 319 0 1016,2
18 San Diego 09-05-2026 04:15 6,9 96 0 0,4 332 0 1016,2
17 San Diego 09-05-2026 04:00 7 96 0 0,4 301 0 1016,2
16 San Diego 09-05-2026 03:45 6,8 96 0 0 339 0 1016,1
15 San Diego 09-05-2026 03:30 6,7 95 0 0 14 0 1016,1
14 San Diego 09-05-2026 03:15 7 95 0,2 0 262 0 1016,3
13 San Diego 09-05-2026 03:00 7,2 95 0 0 262 0 1016,4
12 San Diego 09-05-2026 02:45 7,4 95 0 0 347 0 1016,6
11 San Diego 09-05-2026 02:30 7,6 95 0 0 347 0 1016,6
10 San Diego 09-05-2026 02:15 7,6 95 0 0 347 0 1016,6
9 San Diego 09-05-2026 02:00 7,4 95 0 0 347 0 1016,6
8 San Diego 09-05-2026 01:45 7,4 95 0 0 347 0 1016,6
7 San Diego 09-05-2026 01:30 6,9 94 0 0 347 0 1016,8
6 San Diego 09-05-2026 01:15 7,1 93 0 0 347 0 1016,7
5 San Diego 09-05-2026 01:00 7,7 94 0 0 347 0 1016,6
4 San Diego 09-05-2026 00:45 8,1 94 0 0 347 0 1016,4
3 San Diego 09-05-2026 00:30 8,4 94 0 0 347 0 1016,8
2 San Diego 09-05-2026 00:15 8,6 94 0 0,4 318 0 1017
1 San Diego 09-05-2026 00:00 8,9 93 0 0,4 291 0 1017,1